Orbital Elements
Epoch 2022 Jan. 21.0 TT = JDT 2459600.5
T 2021 Dec. 16.67053 TT Rudenko
q 4.2170571 (2000.0) P Q
n 0.07229437 Peri. 29.17556 -0.61736062 -0.73545940
a 5.7068928 Node 100.39941 +0.65546035 -0.67716379
e 0.2610590 Incl. 16.49227 +0.43501448 -0.02342373
P 13.6
From 1229 observations 1992 Dec. 18-2022 Jan. 27, mean residual 0".8.
|